カタログに戻る

COSMOS 1802

運用中軍事PO
NORAD 17159·PAYLOAD·🇷🇺 Russia

打ち上げ Nov 24, 1986 から Plesetsk Cosmodrome

Loading…

次のパス (今後24時間)

TLE

最新Source: Space-Track

元期: Sep 14, 2026, 01:41 UTC

1 17159U 86093A   26257.07060197  .00000054  00000-0  42251-4 0  9998
2 17159  82.9269 115.2158 0041259 235.8084 287.3918 13.72981143993823

AllMySatでCOSMOS 1802をリアルタイム追跡

Download on the App Store